RH
100 100 100 79 100 84 69 64 46 45 38 45 52 70 73 100 89 68 80 63 51 49 54 52 55 55 46 80 64 62 100 100 100 96 97 100 98 85 81 100 100 100 88 81
97 70 100 100 98 100 93 79 66 55 35 27 94 100 100 91 65 77 70 22 44 44 70 53 44 54 73 68 84 76 90 78 74 70 100 83 90 93 100 100 100 78 91 92
100 94 96 100 100 89 99 100 84 45 32 23 66 77 71 58 52 69 49 28 33 34 64 87 74 55 48 52 62 54 46 71 100 100 82 49 68 89 66 68 79 83 75 70
87 93 99 100 92 92 84 100 64 37 24 24 37 55 46 57 57 80 62 33 30 24 31 48 67 68 63 54 42 36 48 92 68 71 50 33 37 49 57 61 60 67 70 50
100 100 84 64 92 87 99 81 45 31 23 23 32 25 78 49 46 58 67 44 32 22 19 24 42 56 95 93 68 54 60 64 96 59 35 42 66 68 67 52 54 44 50 57
93 87 88 70 88 96 100 82 46 28 25 23 81 73 65 80 68 81 74 49 28 26 20 21 32 89 100 100 98 96 90 96 62 47 55 70 50 36 44 46 42 43 53 54
100 100 100 78 75 100 100 92 47 26 25 30 69 22 66 100 99 77 60 44 32 25 19 18 27 40 68 81 77 96 94 86 69 62 52 40 40 38 37 42 40 42 46 56
95 92 86 98 100 100 100 76 39 37 43 72 69 40 66 100 97 72 58 45 31 23 17 21 21 21 50 82 100 89 73 55 49 45 57 35 44 42 45 40 46 58 60 72
98 84 92 84 99 93 83 55 53 40 25 29 40 56 100 100 82 67 47 39 28 19 16 37 37 55 70 100 100 83 43 24 25 24 30 41 42 42 47 62 64 63 72 75
100 97 96 100 96 80 72 89 80 42 21 24 26 39 97 100 100 77 69 41 28 21 15 30 76 96 91 70 34 35 31 29 38 48 66 42 39 51 85 69 62 75 74 81
100 100 98 89 94 100 100 98 70 33 20 24 36 60 100 100 100 96 48 50 38 23 17 22 21 28 44 32 27 29 41 33 72 79 65 49 40 54 95 61 63 73 85 84
100 100 100 100 100 100 60 49 59 29 59 97 50 85 85 100 100 100 86 72 50 32 20 18 34 33 34 35 26 50 64 64 95 99 51 43 46 70 66 52 70 87 88 91
100 93 90 100 98 76 60 73 70 59 50 25 26 49 100 99 96 86 77 60 42 25 18 20 30 29 39 32 58 65 90 100 73 77 61 37 55 63 88 92 91 95 100 99
100 99 86 92 88 81 64 55 57 52 29 48 60 100 100 99 90 84 71 53 43 30 41 35 46 56 44 61 90 100 98 83 96 57 55 60 75 99 72 80 81 99 98 98
100 94 96 100 93 76 74 85 70 49 39 48 100 99 100 100 87 47 31 32 30 24 43 66 54 52 50 100 100 97 99 96 73 53 77 99 97 60 73 84 85 86 100 92
100 98 64 100 64 100 61 92 84 86 70 100 100 100 100 73 41 46 45 45 37 35 71 97 62 81 90 98 100 85 100 100 60 77 100 81 45 62 77 96 76 100 96 79
100 100 100 100 100 100 97 100 93 80 64 76 100 100 100 79 57 49 41 42 59 89 87 70 85 80 100 100 100 100 100 71 55 83 73 60 63 63 100 77 100 96 71 97
100 100 79 75 100 100 100 100 92 100 92 100 100 100 88 65 57 57 74 100 100 96 100 89 100 100 100 100 99 100 72 47 56 77 66 55 61 83 92 99 100 100 97 95
100 99 100 93 100 100 100 100 100 100 94 83 95 80 62 66 100 100 100 100 100 100 100 100 100 100 100 99 94 57 30 37 71 72 73 86 62 100 79 100 100 86 93 100
100 100 100 86 80 100 100 100 100 100 100 100 100 100 100 99 96 100 100 100 100 100 100 100 100 86 94 75 71 50 83 84 75 93 90 99 100 100 100 100 99 88 100 90
100 100 100 100 100 99 100 100 100 100 100 100 100 100 100 100 100 100 100 100 100 100 100 92 84 65 54 70 71 77 68 75 84 93 100 100 100 100 100 91 93 100 94 60
100 100 100 92 100 100 100 100 100 100 100 100 100 100 100 100 100 100 100 100 100 100 89 70 55 47 78 85 85 80 83 79 86 93 98 92 100 100 100 88 100 80 71 69
100 100 100 100 100 100 100 100 100 100 100 100 99 100 100 100 100 100 100 96 96 62 54 67 84 100 85 97 82 90 88 99 100 100 94 99 100 100 97 99 88 70 70 31
100 100 100 100 100 100 100 100 100 100 100 100 100 100 81 76 70 94 98 90 85 80 86 84 79 88 82 83 99 100 99 84 99 100 100 92 94 99 100 83 68 61 67 19
100 100 100 100 100 100 100 100 100 100 100 100 97 100 100 100 100 100 98 94 86 68 66 86 99 82 67 96 100 73 89 82 81 98 100 100 91 83 78 72 77 64 29 16
100 100 100 100 100 100 100 100 100 100 100 100 100 100 100 100 100 100 86 83 89 90 100 93 99 100 97 69 73 76 90 100 99 100 99 80 96 71 73 74 80 44 20 13
Wind_Speed
57 51 45 60 45 42 44 42 38 45 40 38 45 45 46 45 40 42 35 30 35 35 36 33 30 29 26 23 26 29 36 38 38 38 41 34 38 40 42 40 40 43 48 52
64 50 58 60 52 51 49 47 44 44 43 37 42 40 49 49 46 37 30 27 31 36 38 35 30 28 25 25 26 28 30 30 31 41 32 40 40 41 43 47 51 51 54 58
65 57 65 59 56 54 56 53 48 39 43 35 44 44 48 45 37 35 29 29 33 36 37 37 36 30 28 30 29 28 27 27 30 33 43 45 41 43 47 50 53 57 62 66
70 62 62 61 56 60 53 57 47 42 44 36 43 40 37 43 30 24 28 30 33 40 39 42 38 31 29 29 30 30 29 33 37 42 47 44 46 50 55 58 61 62 61 65
63 67 66 59 56 63 54 56 45 46 37 37 40 30 42 39 39 37 32 33 35 39 41 39 37 33 33 31 32 32 34 37 41 44 47 48 51 53 53 52 56 61 65 68
68 64 66 58 62 60 59 54 51 40 41 35 40 41 38 44 39 36 32 34 34 37 38 40 37 36 36 37 35 36 39 44 45 47 48 49 51 54 56 61 67 71 72 75
67 63 65 64 59 63 60 59 52 39 38 30 46 38 30 39 39 37 33 35 37 40 44 41 42 44 44 46 44 45 49 47 47 45 46 50 56 59 64 69 74 75 77 82
69 65 59 62 63 65 63 59 45 41 40 41 47 39 35 38 40 37 36 38 39 39 42 36 41 43 47 49 50 48 43 47 51 48 50 54 63 68 71 73 73 76 82 85
72 63 61 62 67 67 58 51 49 45 40 38 41 38 37 40 43 38 41 39 39 38 34 34 35 39 45 50 47 48 48 50 54 56 55 62 67 68 72 74 79 86 88 95
65 66 63 65 67 58 51 54 51 44 39 39 38 42 43 44 44 45 43 42 40 44 33 36 41 41 42 51 53 52 55 55 58 56 64 69 75 75 78 83 87 93 98 103
70 69 63 63 60 58 54 52 51 49 41 39 39 42 49 50 50 43 41 42 44 44 40 38 39 45 47 51 54 57 62 63 62 68 74 75 80 85 84 90 94 101 107 111
68 68 62 58 61 59 51 47 53 48 46 45 46 45 50 49 46 44 49 53 51 49 51 46 45 48 52 57 61 64 64 65 73 74 77 81 83 87 91 101 106 109 114 122
68 65 58 53 52 52 48 50 53 52 50 42 51 42 47 50 50 50 51 53 54 55 57 54 54 54 60 57 62 59 63 72 71 81 89 88 89 94 99 107 111 114 119 122
67 61 52 48 52 57 55 57 57 56 49 47 41 46 48 52 51 54 57 57 57 59 60 60 64 62 65 57 58 66 71 77 82 85 86 88 94 98 104 109 112 114 122 129
65 58 54 54 56 56 57 60 63 56 51 52 49 49 51 51 54 58 59 56 62 64 62 64 65 74 62 63 67 76 81 85 86 87 90 95 97 105 108 113 116 120 128 136
61 58 60 52 59 58 56 55 57 54 56 57 59 57 55 60 62 63 62 64 66 60 66 68 75 63 66 68 78 89 86 87 88 91 94 97 104 111 111 117 122 127 135 142
66 66 66 64 65 65 61 53 55 60 55 64 63 62 64 67 64 64 67 67 58 60 66 70 67 73 70 76 88 89 89 91 92 97 102 106 110 113 116 126 128 135 144 148
77 76 75 73 80 77 64 60 64 65 66 66 67 72 74 72 69 68 64 63 62 64 64 71 72 74 78 82 86 90 92 96 101 102 105 109 115 116 125 130 134 141 147 150
79 81 80 77 84 79 72 68 75 77 73 76 74 76 76 70 66 68 70 72 73 66 70 73 77 80 83 86 90 97 105 105 104 105 111 113 121 124 130 136 139 144 149 156
91 91 88 84 85 81 77 79 79 77 73 72 68 69 73 75 77 77 79 80 78 78 81 84 87 85 87 90 98 103 101 105 109 114 118 124 126 132 135 139 144 150 155 160
97 96 96 91 92 85 81 78 79 80 72 81 81 82 83 84 81 84 83 82 83 86 89 89 87 91 94 96 101 102 107 110 114 117 122 125 128 132 137 141 148 153 154 154
96 96 94 91 95 89 88 85 81 81 83 85 85 80 79 82 84 84 86 86 91 93 94 92 94 100 102 102 103 108 111 114 115 121 124 128 134 135 141 147 150 160 160 149
96 95 92 93 95 92 88 87 85 86 86 87 88 84 87 87 86 89 90 92 95 96 99 100 92 103 106 105 110 112 116 119 123 125 130 135 136 141 147 151 160 155 154 139
98 97 93 94 93 93 90 88 88 88 90 91 92 94 95 95 97 94 96 98 98 100 100 103 107 110 109 111 113 116 120 123 128 130 134 138 142 147 150 159 162 155 154 125
104 102 95 95 93 93 92 92 93 91 92 94 94 91 92 93 95 97 98 100 101 103 106 105 111 113 114 114 120 124 126 131 136 135 141 144 148 152 159 159 153 154 133 112
105 104 102 97 99 99 98 97 95 95 94 94 95 97 98 99 101 101 102 104 107 109 111 116 111 111 117 123 125 127 131 135 141 141 144 151 151 155 154 152 159 137 115 107
Wind_Direction
245 258 269 263 268 274 276 277 271 271 277 275 273 278 280 285 292 296 290 291 292 289 284 281 271 270 269 272 277 284 294 297 297 301 297 308 313 312 304 296 303 303 305 305
243 263 257 263 264 274 274 276 270 273 276 280 280 281 289 291 289 284 289 295 283 283 278 279 271 256 268 272 274 282 293 297 302 302 299 310 310 309 302 302 304 304 305 304
247 254 257 261 267 271 272 275 272 275 275 285 281 287 289 285 283 279 283 297 288 291 280 281 283 280 270 270 272 276 284 299 301 287 301 304 303 302 301 301 300 301 304 306
250 251 254 258 265 269 274 270 274 276 281 290 281 286 282 278 285 271 281 289 289 294 284 279 282 282 280 272 277 285 292 290 290 290 297 299 300 302 304 302 303 306 307 309
248 247 251 256 265 268 268 268 275 273 284 287 284 266 269 280 279 277 283 280 292 293 289 284 279 278 285 283 287 289 288 288 289 296 295 299 301 301 303 312 311 310 312 311
248 249 254 255 258 265 267 269 272 269 285 292 272 268 267 273 271 275 275 287 294 293 292 284 276 282 282 289 290 285 282 286 295 296 298 300 305 306 310 309 310 310 310 308
245 247 251 258 260 265 265 265 266 281 287 275 269 278 276 270 266 273 282 292 295 296 294 282 274 274 279 284 289 288 287 291 295 297 301 305 309 306 306 308 309 309 309 314
249 253 254 251 255 260 264 264 266 270 273 266 270 288 267 261 268 283 291 290 294 290 293 280 272 272 275 284 284 286 295 301 298 296 302 304 306 307 307 309 306 307 310 309
249 247 249 250 253 257 258 264 263 266 277 268 278 272 258 268 281 284 290 288 286 290 290 284 280 279 279 284 284 293 298 303 303 298 301 306 305 307 307 309 310 312 311 322
244 243 246 250 253 256 259 257 261 267 266 264 267 264 266 281 275 284 284 278 285 292 295 290 282 282 283 287 293 294 294 290 293 294 299 301 305 307 309 311 313 317 319 320
240 241 243 251 258 252 257 257 259 262 272 267 271 263 271 274 278 277 272 275 282 286 296 292 286 282 280 285 287 288 287 287 293 298 301 302 307 304 308 313 314 318 323 325
239 240 241 244 248 253 254 258 256 267 266 264 264 264 265 269 266 274 275 280 283 285 288 293 288 282 282 287 283 278 280 289 298 301 305 305 308 307 312 317 316 319 323 325
241 243 242 242 246 253 263 252 252 254 253 262 264 269 266 266 270 272 272 278 284 290 292 288 286 289 294 290 279 285 292 295 297 304 308 309 307 313 313 317 317 320 321 321
236 241 242 245 247 242 245 248 250 254 261 262 264 262 264 267 271 272 279 284 284 290 288 281 280 294 291 287 285 296 297 300 305 308 312 310 311 312 314 316 319 320 322 321
236 242 241 235 242 244 244 248 252 258 261 261 258 264 269 270 273 278 286 286 288 289 282 275 289 293 292 285 289 296 300 304 305 307 311 310 310 314 315 317 321 320 322 322
232 240 246 249 251 248 253 250 256 264 263 267 259 263 274 276 279 284 287 289 288 288 281 279 288 293 288 287 294 300 302 301 306 309 309 308 310 314 316 321 320 322 320 324
234 234 236 238 241 239 238 249 260 262 264 261 262 268 277 278 281 278 283 288 287 283 286 289 291 298 287 289 298 299 300 303 306 305 305 311 312 315 317 318 320 320 323 322
240 241 243 246 244 249 252 252 248 252 256 260 261 267 274 279 281 280 280 284 288 289 286 292 295 294 293 296 298 299 301 304 304 303 308 311 315 317 318 320 317 320 321 323
236 237 240 244 244 246 249 253 258 258 258 261 265 274 278 277 272 276 278 283 288 287 288 291 292 294 297 298 298 300 301 304 304 305 309 313 316 316 317 318 318 319 323 323
235 239 244 246 248 246 250 257 261 262 266 270 269 266 267 270 274 278 279 283 284 288 289 290 292 294 295 298 299 300 300 303 304 306 310 313 315 316 317 317 317 320 323 322
237 241 244 247 249 248 252 257 260 262 267 267 269 270 272 274 274 276 280 283 284 286 289 292 295 295 299 298 299 302 303 304 305 307 310 313 314 315 316 318 319 322 322 322
238 239 243 246 248 248 254 257 260 262 263 266 270 274 273 274 275 276 276 279 282 286 290 293 295 296 297 299 302 302 303 304 305 308 311 312 312 313 315 317 321 321 322 322
240 241 244 247 249 250 252 256 260 261 261 264 267 269 272 274 276 277 281 282 285 286 291 295 289 294 299 299 301 305 304 303 304 307 309 311 311 315 315 318 318 319 322 321
241 241 243 246 250 253 256 257 260 262 262 264 268 269 274 276 279 281 283 286 288 292 293 292 293 298 298 300 302 303 305 307 307 306 308 311 312 313 315 317 318 320 321 320
240 242 243 246 248 252 256 258 259 262 264 265 269 273 273 274 276 280 282 286 290 292 294 294 294 297 298 298 299 301 304 305 307 307 309 311 312 314 315 317 318 320 319 318
241 243 244 246 248 251 255 258 260 263 265 267 269 270 273 276 279 281 284 288 291 292 291 293 295 295 296 299 299 299 301 306 308 309 308 310 311 314 316 318 319 318 317 318